Current weather by "City, St" or "zip code"  
 

Current Conditions: Robstown, Nueces County Airport, TX

Mostly Cloudy


80.0 F

Last Updated on Oct 23 2020, 8:55 pm CDT
Humidity: 78%
Wind Speed: SE 4.6 mph
Barometer 29.98 in
Dewpoint: 72.5 F
Visibility: 10.00 mi
Precip: --
Heat Index: 84 F
Wind Chill: NA
Current conditions at:

Robstown, Nueces County Airport, TX (KRBO)

Lat: 27.77833 Lon: 97.69028

Local Radar Image active severe weather and emergency alerts image image weather storm and storm spotter reports image weather observation monitoring service image
Local
Radar
Active
Alerts
Storm Reports Obs
Monitoring

Sign-up For Email & Text Message Weather Alert Notification Services



Advertise Here

Observation History for Robstown, Nueces County Airport, TX


Time Wind
(mph)
Vis
(mi)
Weather Precip (in) Temperature (F) Relative
Humidity
Wind
Chill
(F)
Heat
Index
(F)
Pressure
Air Dwpt altimeter
(in)
sea level
(mb)
Rmks
8:55 pm CDT SE 4.6 10.00 Mostly Cloudy -- 80.0 72.5 78% NA 84 29.98 M
7:55 pm CDT SE 5.8 10.00 Partly Cloudy -- 82.0 72.0 72% NA 87 29.96 M
6:55 pm CDT SE 9.2 10.00 Fair -- 84.0 71.6 66% NA 89 29.93 M
6:35 pm CDT E 10.4 10.00 Fair -- 85.0 71.1 62% NA 90 29.92 M
5:55 pm CDT E 10.4 10.00 Fair -- 88.0 70.7 57% NA 94 29.91 M
4:55 pm CDT E 8.1 10.00 Fair -- 90.0 70.3 53% NA 96 29.90 M
3:55 pm CDT NW 4.6 10.00 Partly Cloudy -- 90.0 68.9 50% NA 94 29.90 M
2:55 pm CDT N 4.6 10.00 Mostly Cloudy -- 89.0 68.5 51% NA 93 29.92 M
1:55 pm CDT N 0.0 10.00 Partly Cloudy -- 89.0 70.5 55% NA 95 29.92 M
12:55 pm CDT NW 3.5 10.00 Partly Cloudy -- 86.0 71.2 61% NA 92 29.95 M
11:55 am CDT W 3.5 10.00 Partly Cloudy -- 85.0 73.6 69% NA 92 29.97 M
11:35 am CDT W 3.5 10.00 Partly Cloudy -- 84.0 73.6 70% NA 91 29.97 M
10:55 am CDT SW 3.5 10.00 Mostly Cloudy -- 82.0 73.8 76% NA 88 29.96 M
9:55 am CDT N 0.0 10.00 Partly Cloudy -- 78.0 76.6 95% NA NA 29.94 M
8:55 am CDT N 0.0 5.00 Fog/Mist -- 75.0 75.2 100% NA NA 29.92 M
7:55 am CDT E 3.5 0.25 Fog -- 73.0 72.5 100% NA NA 29.90 M
6:55 am CDT E 3.5 0.50 Fog -- 73.0 72.5 99% NA NA 29.89 M
6:35 am CDT N 0.0 0.50 Fog -- 73.0 72.7 99% NA NA 29.89 M
5:55 am CDT E 3.5 0.50 Fog -- 73.0 72.7 99% NA NA 29.88 M
5:35 am CDT E 3.5 0.50 Fog -- 73.0 72.3 99% NA NA 29.88 M
4:55 am CDT E 3.5 1.25 Fog/Mist -- 73.0 72.7 98% NA NA 29.88 M
3:55 am CDT E 3.5 7.00 Partly Cloudy -- 74.0 73.0 98% NA NA 29.89 M
2:55 am CDT E 3.5 7.00 Mostly Cloudy -- 74.0 72.9 97% NA NA 29.89 M
1:55 am CDT E 3.5 7.00 Fair -- 74.0 72.5 96% NA NA 29.90 M

Regional Weather Observation


Robstown, Nueces County Airport, TX (KRBO)

Mostly Cloudy
80.0 F

Alice, Alice International Airport, TX (KALI)

Fair
79.0 F

Corpus Christi, Corpus Christi International Airport, TX (KCRP)

A Few Clouds
79.0 F

Beeville Municipal Airport, TX (KBEA)

Fair
58.0 F

Kingsville, Naval Air Station, TX (KNQI)

Fair
77.0 F

Mc Campbell, TX (KTFP)

Fair
78.0 F